CZ-6A DEB, 54993

Orbit data source: Space-Track

CZ-6A DEB, 54993 is space debris in SSO originally from a launch on Fri, 11 Nov 2022 UTC launched from the Taiyaun Space Center, China (TSC). Debris objects in space refer to the collection of defunct objects orbiting the Earth. Examples of debris include non-operational satellites, rocket bodies, and fragments generated from explosions, collisions, or faulty payload assembly.

Loading next visibility...
Identifier
54993, 2022-151UJ
Orbit
SSO
Country
Flag of CNCN / PRC
Related business
Manufacturer
SAST
Mission
Spacecraft
Bus & Motor
Unknown
Mass
Unknown
Launch date (UTC)
2022-11-11 (4 years ago)
Launch vehicle
Unknown
Launch site
Taiyaun Space Center, China (TSC)
Object type
Payload
Rocket body
Debris
Shape & HBR
Unknown shape, 0.1 m
Radar Cross Section
Medium (>0.1 m² and <1 m²)

Expand to show TLE details & history
Last TLE update: 10 hours ago

TLE from 10 hours ago
0 CZ-6A DEB
1 54993U 22151UJ  26236.43614469  .00000596  00000-0  34981-3 0  9995
2 54993  98.8529 236.0811 0051171 147.1638 213.2730 14.11237063193402
Epoch: 2026-08-24T10:28Z
TLE epoch observation values (Epoch: 2026-08-24T10:28:02.901Z)
Latitude
-0.00002°
Longitude
106.35114°
Altitude
889.048 km
Speed
7.392 km/s
True Right ascension
15h 44m 19s
True Declination
0° 00' 00"
Sunlit
Object was in daylight at epoch
Visualization orbit readout
Latitude
Unknown
Longitude
Unknown
Altitude
Unknown
Speed
Unknown
Apparent Right ascension
Unknown
Apparent Declination
Unknown
Sunlit
N/A
Visualization observer readout
Local Sidereal Time
12:10:03
Azimuth
Unknown
Elevation
Unknown
Doppler factor
Unknown
Orbital elements
Apogee altitude
889.318 km
Perigee altitude
815.32 km
Semi-major axis
7,230.456 km
Eccentricity
0.00512
Inclination
98.8529°
RAAN
236.0811°
Arg. of periapsis
147.1638°
True anomaly
212.95301°
Mean anomaly
213.273°
Eccentric anomaly
213.11283°
Mean motion
3.53016 °/min
Orbital period
101.98 mins
BSTAR
0.00034981
Loading maneuver chart data...
Computing Atmospheric mass density...
Loading historical data...
Loading historical data...
Loading historical data...
Loading historical data...
Loading historical data...
Loading historical data...
Loading historical data...

Documentation

Showing up to 5 results
|